Regional Weather Roundup
Issued by NWS

Home | Current Version | Previous Version | Text Only | Print | Product List | Glossary On
Versions: 1 2 3 4 5 6 7 8 9 10 11 12 13 14 15 16 17 18 19 20 21 22 23 24 25 26 27 28 29 30 31 32 33 34 35 36 37 38 39 40 41 42 43 44 45 46 47 48 49 50
528
ASUS44 KBMX 190710
RWRAL

ALABAMA REGIONAL WEATHER ROUNDUP
NATIONAL WEATHER SERVICE BIRMINGHAM AL
100 AM CST FRI JAN 19 2018

NOTE: "FAIR" INDICATES FEW OR NO CLOUDS BELOW 12,000 FEET
WITH NO SIGNIFICANT WEATHER AND/OR OBSTRUCTIONS TO VISIBILITY.

THE REMARK "TC" DENOTES TEMPERATURE IN DEGREES CELSIUS.

ALZ001>011-014-016>018-020-190800-
NORTH ALABAMA

CITY           SKY/WX    TMP DP  RH WIND       PRES   REMARKS
MUSCLE SHOALS  FAIR      20  16  84 SE3       30.35F
HUNTSVILLE     FAIR      21  17  84 E3        30.34F
DECATUR        FAIR      16  15  96 CALM      30.36F
HALEYVILLE     FAIR      18  14  84 CALM      30.35F
GADSDEN        FAIR      17  15  92 CALM      30.36F
$$

ALZ012-013-022-023-030>036-040>044-190800-
WEST CENTRAL ALABAMA

CITY           SKY/WX    TMP DP  RH WIND       PRES   REMARKS
TUSCALOOSA     FAIR      21  16  81 CALM      30.41S
DEMOPOLIS        N/A     19  16  90 CALM      30.41S
$$

ALZ015-024>026-033>036-041>044-190800-
CENTRAL ALABAMA

CITY           SKY/WX    TMP DP  RH WIND       PRES   REMARKS
BIRMINGHAM     FAIR      22  15  75 CALM      30.38F
MONTGOMERY     FAIR      24  16  71 CALM      30.38F
SHELBY CO ARPT FAIR      22  16  78 CALM      30.37S
MAXWELL AFB    FAIR      23  20  88 CALM      30.37S
GREENVILLE     FAIR      22  17  81 CALM      30.36S
SELMA          FAIR      21  18  86 CALM      30.40R
PRATTVILLE     FAIR      21  19  91 CALM      30.38S
BESSEMER       NOT AVBL
TALLADEGA      FAIR      19  15  86 CALM      30.38F
PELL CITY      SUNNY     18  16  93 CALM      30.38F
MARION         FAIR      22  18  87 CALM      30.40S
SYLACAUGA      FAIR      21  20  93 CALM      30.38R
$$

ALZ019-021-028-029-037-038-045>048-190800-
EAST CENTRAL ALABAMA

CITY           SKY/WX    TMP DP  RH WIND       PRES   REMARKS
ANNISTON       FAIR      20  16  84 W3        30.37S
ALEXANDER CITY FAIR      20  20  98 N3        30.35S
AUBURN         FAIR      27  16  63 NW3       30.34F
$$

ALZ051>064-190800-
SOUTHWEST ALABAMA

CITY           SKY/WX    TMP DP  RH WIND       PRES   REMARKS
MOBILE         FAIR      25  18  74 CALM      30.40F
BROOKLEY FIELD FAIR      27  23  85 CALM      30.42F
EVERGREEN      FAIR      23  18  81 CALM      30.39F
$$

ALZ049-050-065>069-190800-
SOUTHEAST ALABAMA

CITY           SKY/WX    TMP DP  RH WIND       PRES   REMARKS
DOTHAN           N/A     27  19  72 MISG      30.38F
OZARK          FAIR      25  17  72 NW6       30.36F WCI  18
TROY           FAIR      22  19  89 CALM      30.37F
EUFAULA        FAIR      24  20  84 CALM      30.34F
$$




USA.gov is the U.S. government's official web portal to all federal, state and local government web resources and services.